Regional Weather Roundup
Issued by NWS

Home | Current Version | Previous Version | Text Only | Print | Product List | Glossary Off
Versions: 1 2 3 4 5 6 7 8 9 10 11 12 13 14 15 16 17 18 19 20 21 22 23 24 25 26 27 28 29 30 31 32 33 34 35 36 37 38 39 40 41 42 43 44 45 46 47 48 49 50

000
ASUS43 KFSD 231702
RWRSD

WEATHER ROUNDUP FOR SOUTH DAKOTA
NATIONAL WEATHER SERVICE SIOUX FALLS SD
1200 PM CDT THU OCT 23 2014

NOTE: "FAIR" INDICATES FEW OR NO CLOUDS BELOW 12,000 FEET WITH NO
SIGNIFICANT WEATHER AND/OR OBSTRUCTIONS TO VISIBILITY.


SDZ001>005-009-010-012>017-231800-
NORTHWEST AND NORTH CENTRAL SOUTH DAKOTA

CITY           SKY/WX    TMP DP  RH WIND       PRES   REMARKS
BUFFALO          N/A     58  32  37 SE9       29.85F
FAITH            N/A     62  37  39 S8        29.94F
MOBRIDGE       SUNNY     57  42  57 S6        29.92F
$$

SDZ012>016-024>037-041>051-057-063-072>074-231800-
SOUTHWEST AND SOUTH CENTRAL SOUTH DAKOTA

CITY           SKY/WX    TMP DP  RH WIND       PRES   REMARKS
RAPID CTY ARPT PTSUNNY   56  33  42 SE5       29.96F
PIERRE         SUNNY     57  39  51 SW7       29.96F
CUSTER         CLOUDY    53  21  28 SW13G23   30.03F
ELLSWORTH AFB  PTSUNNY   60  27  28 S6        29.96F
PHILIP         SUNNY     60  34  37 W7        29.96F
PINE RIDGE     PTSUNNY   59  37  44 CALM      30.01F
SPEARFISH      FAIR      63  28  27 CALM      29.96F
WINNER           N/A     63  39  41 SW8       30.00S
$$

SDZ004>011-016>023-039-040-231800-
NORTHEAST SOUTH DAKOTA

CITY           SKY/WX    TMP DP  RH WIND       PRES   REMARKS
ABERDEEN       SUNNY     56  43  61 S9        29.97F
WATERTOWN      SUNNY     57  47  69 S7        30.00S
SISSETON         N/A     65  38  36 W5        29.95F
$$

SDZ017-020-022-023-036>040-048>070-231800-
SOUTHEAST SOUTH DAKOTA

CITY           SKY/WX    TMP DP  RH WIND       PRES   REMARKS
SIOUX FALLS    MOSUNNY   62  50  64 SW6       30.03F
HURON          SUNNY     59  47  64 S5        29.99F
CHAMBERLAIN    SUNNY     58  46  64 SW5       30.00S
MITCHELL       SUNNY     59  51  75 S6        30.01F
YANKTON        SUNNY     55  52  88 S3        30.04F
$$

ABBREVIATIONS USED IN REMARKS
   TC - TEMPERATURE IN CELSIUS
  WCI - WIND CHILL INDEX
   HX - HEAT INDEX
  VSB - VISIBILITY




USA.gov is the U.S. government's official web portal to all federal, state and local government web resources and services.